Regional Weather Roundup
Issued by NWS

Home | Current Version | Previous Version | Graphics & Text | Print | Product List | Glossary On
Versions: 1 2 3 4 5 6 7 8 9 10 11 12 13 14 15 16 17 18 19 20 21 22 23 24 25 26 27 28 29 30 31 32 33 34 35 36 37 38 39 40 41 42 43 44 45 46 47 48 49 50
000
ASUS45 KBOU 071910
RWRCO

WEATHER ROUNDUP FOR COLORADO
NATIONAL WEATHER SERVICE DENVER/BOULDER CO
100 PM MDT TUE JUL 07 2015

NOTE: "FAIR" INDICATES FEW OR NO CLOUDS BELOW 12000 FEET WITH NO
SIGNIFICANT WEATHER AND/OR OBSTRUCTIONS TO VISIBILITY.

COZ001>005-013-030-031-072000-
...NORTHWEST COLORADO...

CITY           SKY/WX    TMP DP  RH WIND       PRES   REMARKS
CRAIG          CLOUDY    71  55  56 CALM      30.16F
HAYDEN         CLOUDY    66  48  52 SW3       30.18F
MEEKER         TSTM      62  55  77 S5        30.19S
MOUNT WERNER   NOT AVBL
STEAMBOAT SPGS CLOUDY    67  51  56 SW6       30.20F
WALDEN         PTSUNNY   61  46  59 SW3       30.26F
$$

COZ006>008-011-072000-
...WEST CENTRAL VALLEYS...

CITY           SKY/WX    TMP DP  RH WIND       PRES   REMARKS
GRAND JUNCTION PTSUNNY   70  58  65 N5        30.10F
MONTROSE       CLOUDY    73  50  44 S28G33    30.19F
EAGLE          PTSUNNY   61  57  88 N3        30.24F
RIFLE          CLOUDY    70  53  54 NW5       30.15F
DELTA          CLOUDY    81  51  34 SW12G17   30.12F
NUCLA          CLOUDY    73  48  40 E7        30.19F
$$

COZ017>023-064>068-072000-
...SOUTHWEST COLORADO...

CITY           SKY/WX    TMP DP  RH WIND       PRES   REMARKS
DURANGO        PTSUNNY   69  55  60 E12       30.21F
CORTEZ         MOSUNNY   70  59  68 VRB6      30.17F
PAGOSA SPRINGS PTSUNNY   63  54  73 E7        30.30F
TELLURIDE      CLOUDY    53  49  87 E5        30.40F
WOLF CREEK PAS NOT AVBL
$$

COZ009-010-012-014-032>034-037-058>063-072000-
...CENTRAL COLORADO...

CITY           SKY/WX    TMP DP  RH WIND       PRES   REMARKS
ASPEN          CLOUDY    61  49  64 CALM      30.28F
BUENA VISTA    RAIN      58  53  81 W3        30.28S
COPPER MTN     TSTM      46  41  81 W22G28    30.53F
BERTHOUD PASS  TSTM      36  28  75 W14G24    30.57R VSB 1/4
COTTONWOOD PAS NOT AVBL
GUNNISON       CLOUDY    55  45  67 W14G25    30.30R
KREMMLING      CLOUDY    70  50  49 W13       30.24F
LEADVILLE      CLOUDY    50  47  89 N9        30.39F
MONARCH PASS   TSTM      43  41  93 SW18      30.62F VSB<1/4
SALIDA         CLOUDY    59  54  84 SE15      30.35R
SUNLIGHT       CLOUDY    54  46  76 CALM      30.48F
WILKERSON PASS PTSUNNY   52  48  87 SW5       30.50F
$$

COZ069>075-072000-
...SAN LUIS VALLEY/SANGRE DE CRISTO MOUNTAINS...

CITY           SKY/WX    TMP DP  RH WIND       PRES   REMARKS
ALAMOSA        CLOUDY    60  55  83 SW8       30.29F
LA VETA PASS   CLOUDY    45  43  93 MISG      30.45F FOG
SAGUACHE       CLOUDY    64  54  68 SE9       30.31S THUNDER
$$

COZ035-036-038>040-072000-
...NORTHERN COLORADO FRONT RANGE...

CITY           SKY/WX    TMP DP  RH WIND       PRES   REMARKS
DENVER INTL AP PTSUNNY   71  53  52 S20G25    30.15F HAZE
DMNS CITY PARK   N/A     68  55  62 N10       30.14F
AURORA         PTSUNNY   69  54  57 S5        30.17F
FRONT RANGE AP PTSUNNY   68  54  60 SE20G26   30.18F HAZE
ERIE MUNI ARPT PTSUNNY   67  57  69 NW5       30.15F HAZE
BOULDER MUN AP CLOUDY    64  57  77 NW7       30.17S THUNDER HAZE
CENTENNIAL     PTSUNNY   68  54  60 SE15      30.17F HAZE
BROOMFIELD     CLOUDY    64  57  77 NW6       30.18F FOG
FORT COLLINS   MOSUNNY   66  55  68 W5        30.16F
LONGMONT       CLOUDY    71  57  60 CALM      30.17F HAZE
$$

COZ041-046-047-076>085-087-088-072000-
...PIKES PEAK/PALMER DIVIDE AND SOUTHERN FOOTHILLS...

CITY           SKY/WX    TMP DP  RH WIND       PRES   REMARKS
COLO. SPRINGS  CLOUDY    56  51  84 S14       30.27F FOG
A. F. ACADEMY  CLOUDY    53  53  99 S12       30.26F FOG
ELLICOTT       CLOUDY   N/A N/A N/A MISG      30.25F FOG
FALCON         CLOUDY    53  51  92 S14       30.29F FOG
FORT CARSON    CLOUDY    57  53  88 S13       30.24F FOG
LIMON          PTSUNNY   66  49  54 S12G20    30.21F
MONUMENT HILL  CLOUDY    55  50  82 MISG      30.25F HAZE
TRINIDAD       CLOUDY    65  52  62 SE8       30.24F HAZE
$$

COZ042>045-048>051-090-091-072000-
...NORTHEAST COLORADO...

CITY           SKY/WX    TMP DP  RH WIND       PRES   REMARKS
GREELEY ARPT   CLOUDY    73  54  49 S14G20    30.14F
AKRON          PTSUNNY   72  49  44 S20G26    30.19S
BURLINGTON     MOSUNNY   73  43  33 SE18      30.19F
WRAY           SUNNY     76  44  31 E14G21    30.18S
STERLING       CLOUDY    72  50  46 S15G22    30.15F
HOLYOKE        SUNNY     75  50  41 SE15      30.18F
FORT MORGAN    PTSUNNY   72  48  42 SE13G20   30.16F
$$

COZ086-089-092>099-072000-
...SOUTHEAST COLORADO...

CITY           SKY/WX    TMP DP  RH WIND       PRES   REMARKS
PUEBLO         CLOUDY    67  52  58 S9        30.20F HAZE
LA JUNTA       PTSUNNY   73  48  41 SE8       30.18F HAZE
LAMAR          MOSUNNY   74  48  39 E10       30.15F HAZE
SPRINGFIELD      N/A     72  50  45 NE10      30.19F
$$


USA.gov is the U.S. government's official web portal to all federal, state and local government web resources and services.